Showing default

OTTER PUP, 56933

Orbit data source: Space-Track

OTTER PUP, 56933 is a payload satellite owned by Starfish Space (US) in SSO that was launched on Mon, 12 Jun 2023 UTC via an FALCON 9 launch vehicle from the Air Force Western Test Range (AFWTR). Payload-class satellites include a variety of spacecraft equipped with specific instruments for various scientific and technological missions. These include communications satellites like Starlink; space stations such as the ISS; scientific satellites like the Hubble; Earth observation satellites from companies like Planet Labs, Umbra, and HawkEye 360; GPS; miniature CubeSats for education and research; and military/defense satellites.

Loading next visibility...
Identifier
56933, 2023-084B
Orbit
SSO
Country
Flag of USUS
Related business
Manufacturer
Starfish Space
Mission
Partially operational Commercial Technology
Bus & Motor
OTTER, EP
Mass
~50 kg wet, 50 kg dry
Launch date (UTC)
2023-06-12 (3 years ago)
Launch vehicle
FALCON 9
Launch site
Air Force Western Test Range (AFWTR)
Object type
Payload
Rocket body
Debris
Shape & HBR
Box + 2 Pan, 0.5 m
Radar Cross Section
1.500 m², Medium (>0.1 m² and < 1m²)

Expand to show TLE details & history
Last TLE update: 18 hours ago

TLE from 18 hours ago
0 OTTER PUP
1 56933U 23084B   26034.41302414  .00103016  00000-0  75233-3 0  9991
2 56933  97.5776 187.0503 0002791 332.2646  27.8468 15.72933406148095
Epoch: 2026-02-03T09:54Z
TLE epoch observation values (Epoch: 2026-02-03T09:54:45.285Z)
Latitude
-0.00003°
Longitude
-95.2327°
Altitude
352.014 km
Speed
7.699 km/s
True Right ascension
12h 28m 12s
True Declination
0° 00' 00"
Sunlit
Object was in full shadow at epoch
Visualization orbit readout
Latitude
Unknown
Longitude
Unknown
Altitude
Unknown
Speed
Unknown
Apparent Right ascension
Unknown
Apparent Declination
Unknown
Sunlit
N/A
Visualization observer readout
Local Sidereal Time
05:39:19
Azimuth
Unknown
Elevation
Unknown
Doppler factor
Unknown
Orbital elements
Apogee altitude
349.299 km
Perigee altitude
345.544 km
Semi-major axis
6,725.559 km
Eccentricity
0.00028
Inclination
97.5776°
RAAN
187.0503°
Arg. of periapsis
332.2646°
True anomaly
27.86174°
Mean anomaly
27.8468°
Eccentric anomaly
27.85427°
Mean motion
3.93505 °/min
Orbital period
91.49 mins
BSTAR
0.00075233
Loading maneuver chart data...
Computing Atmospheric mass density...

Documentation

Showing up to 5 results
|